Regional Weather Roundup
Issued by NWS Midland/Odessa, TX

Skip options and go directly to product.
Home | Oldest Version | Previous Version | Current Version | All | Text Only | Save Text | Print | Product List | Glossary On

Skip product version selection by date and time.   
526
ASUS44 KMAF 060610
RWRMAF
MIDLAND AREA WEATHER ROUNDUP
NATIONAL WEATHER SERVICE MIDLAND TX
100 AM CDT MON JUL 06 2015

...IN SOUTHWEST TEXAS AND SOUTHEAST NEW MEXICO...

CITY           SKY/WX    TMP DP  RH WIND       PRES   REMARKS
ALPINE         CLOUDY    74  59  59 W5        30.17S
ANDREWS        FAIR      77  64  62 S14G21    30.01S
ARTESIA        MOCLDY    82  63  51 SW13      29.98S
BIG SPRING     CLEAR     80  63  56 S16G25    30.02R
CARLSBAD       CLOUDY    83  57  41 VRB7      29.95S
DRYDEN           N/A     82  67  60 S7        29.98R
FORT STOCKTON  PTCLDY    77  64  64 S15       30.00F
GUAD PASS      MOCLDY    69  61  75 SW15      30.15F
HOBBS          PTCLDY    77  64  65 SE10      30.02S
MARFA          CLOUDY   N/A N/A N/A CALM      30.17R
MIDLAND AIRPK  PTCLDY    80  64  59 S15G22    30.00F
MIDLAND INTL   MOCLDY    79  64  60 S16       29.99F
ODESSA         MOCLDY    79  63  57 S15G24    30.00F
PECOS          MOCLDY    81  61  51 SE5       29.95S
PRESIDIO       FAIR      76  73  90 CALM      30.02S
SEMINOLE       MOCLDY    78  63  59 S12G21    30.02S
SNYDER         CLEAR     77  64  65 S10       29.99F
WINK           MOCLDY    81  63  54 SE18      29.95S
$$
...OTHER STATIONS IN TEXAS...

CITY           SKY/WX    TMP DP  RH WIND       PRES   REMARKS
ABILENE        CLEAR     80  67  64 S15       29.97F
AMARILLO       PTCLDY    78  64  61 S21G30    29.98S
AUSTIN         CLOUDY    79  75  87 S12       30.02S
BROWNSVILLE    CLEAR     81  78  91 S12       30.02F
CORPUS CHRISTI MOCLDY    81  77  88 S16       30.01S
DALLAS FTW     PTCLDY    83  71  67 S17G24    29.97S
DEL RIO        PTCLDY    84  71  65 SE13      29.94R
EL PASO        MOCLDY    83  58  42 W13       30.04S
HOUSTON INT    MOCLDY    82  76  81 S5        30.05F
LUBBOCK        PTCLDY    79  64  60 S20       29.99R
SAN ANGELO     CLEAR     77  67  71 E3        29.99S
SAN ANTONIO    CLOUDY    80  74  81 SE16G25   30.03R
WACO           CLOUDY    80  72  76 S17G26    30.01S
WICHITA FALLS  NOT AVBL
$$
...OTHER LOCATIONS IN NEW MEXICO...

CITY           SKY/WX    TMP DP  RH WIND       PRES   REMARKS
ALAMAGORDO     MOCLDY    77  59  53 SE3       30.04F
ALBUQUERQUE    CLOUDY    70  58  65 CALM      30.16F
CANNON AFB     CLEAR     71  60  69 S7        30.01S
CLOVIS         PTCLDY    72  57  60 S8          N/A
HOLLOMAN AFB   PTCLDY    76  62  63 S7        30.02S
ROSWELL        MOCLDY    79  60  52 S9        29.97R
RUIDOSO        MOCLDY    64  55  72 SW5       30.24S
SANTA FE       CLOUDY    63  56  78 W8        30.20R
TRUTH OR CONSE CLOUDY    75  59  57 NW8       30.10R
TUCUMCARI      PTCLDY    79  57  46 SW10      29.95F
$$

USA.gov is the U.S. government's official web portal to all federal, state and local government web resources and services.